When you browse on this site, cookies collect data to enhance your experience and personalize the content and advertising you see.
Visit our Privacy Policy to learn more. By continuing to use the site, you agree to this use of cookies and data.

Hourly Weather Konstantyna

Today, 13 July, Monday

Time Temperature Precipitation Wind Pressure Humidity
00:00 +24°C° 0 mm 1 mps 711 mmHg 60%
01:00 +24°C° 0 mm 1 mps 711 mmHg 59%
02:00 +24°C° 0 mm 1 mps 710 mmHg 57%
03:00 +24°C° 0 mm 1 mps 710 mmHg 56%
04:00 +23°C° 0 mm 0 mps 710 mmHg 53%
05:00 +23°C° 0 mm 0 mps 710 mmHg 50%
06:00 +24°C° 0 mm 0 mps 711 mmHg 47%
07:00 +27°C° 0 mm 0 mps 711 mmHg 41%
08:00 +29°C° 0 mm 0 mps 711 mmHg 35%
09:00 +33°C° 0 mm 1 mps 711 mmHg 30%
10:00 +36°C° 0 mm 3 mps 712 mmHg 28%
11:00 +37°C° 0 mm 5 mps 712 mmHg 26%
12:00 +39°C° 0 mm 7 mps 712 mmHg 25%
13:00 +38°C° 0.3 mm 6 mps 711 mmHg 25%
14:00 +35°C° 0.3 mm 5 mps 711 mmHg 26%
15:00 +34°C° 0.3 mm 5 mps 710 mmHg 27%
16:00 +32°C° 0.1 mm 5 mps 710 mmHg 34%
17:00 +30°C° 0.1 mm 6 mps 710 mmHg 40%
18:00 +28°C° 0.1 mm 6 mps 710 mmHg 47%
19:00 +27°C° 0 mm 4 mps 710 mmHg 51%
20:00 +26°C° 0 mm 2 mps 710 mmHg 55%
21:00 +23°C° 0 mm 0 mps 709 mmHg 59%
22:00 +22°C° 0 mm 0 mps 709 mmHg 62%
23:00 +21°C° 0 mm 0 mps 709 mmHg 65%

Tomorrow, 14 July, Tuesday

Time Temperature Precipitation Wind Pressure Humidity
00:00 +21°C° 0 mm 0 mps 709 mmHg 68%
01:00 +20°C° 0 mm 0 mps 709 mmHg 70%
02:00 +20°C° 0 mm 0 mps 709 mmHg 72%
03:00 +20°C° 0 mm 0 mps 708 mmHg 74%
04:00 +20°C° 0 mm 0 mps 709 mmHg 71%
05:00 +21°C° 0 mm 0 mps 709 mmHg 68%
06:00 +23°C° 0 mm 1 mps 709 mmHg 65%
07:00 +25°C° 0 mm 1 mps 709 mmHg 55%
08:00 +27°C° 0 mm 1 mps 710 mmHg 46%
09:00 +29°C° 0 mm 1 mps 710 mmHg 36%
10:00 +30°C° 0 mm 2 mps 710 mmHg 33%
11:00 +32°C° 0 mm 2 mps 710 mmHg 30%
12:00 +34°C° 0 mm 2 mps 710 mmHg 27%
13:00 +34°C° 0 mm 3 mps 710 mmHg 29%
14:00 +34°C° 0 mm 4 mps 709 mmHg 31%
15:00 +34°C° 0 mm 5 mps 709 mmHg 33%
16:00 +32°C° 0.3 mm 5 mps 709 mmHg 40%
17:00 +29°C° 0.3 mm 4 mps 709 mmHg 47%
18:00 +27°C° 0.3 mm 4 mps 709 mmHg 55%
19:00 +26°C° 0.3 mm 3 mps 709 mmHg 60%
20:00 +25°C° 0.3 mm 2 mps 709 mmHg 64%
21:00 +23°C° 0.3 mm 1 mps 709 mmHg 69%
22:00 +23°C° 0.1 mm 1 mps 709 mmHg 70%
23:00 +23°C° 0.1 mm 1 mps 709 mmHg 71%

Day after tomorrow, 15 July, Wednesday

Time Temperature Precipitation Wind Pressure Humidity
00:00 +23°C° 0.1 mm 1 mps 709 mmHg 72%
01:00 +23°C° 0.1 mm 1 mps 709 mmHg 73%
02:00 +22°C° 0.1 mm 1 mps 708 mmHg 73%
03:00 +20°C° 0.1 mm 0 mps 708 mmHg 74%
04:00 +21°C° 0.1 mm 0 mps 709 mmHg 71%
05:00 +23°C° 0.1 mm 1 mps 709 mmHg 69%
06:00 +24°C° 0.1 mm 1 mps 709 mmHg 66%
07:00 +26°C° 0 mm 1 mps 710 mmHg 59%
08:00 +28°C° 0 mm 1 mps 710 mmHg 53%
09:00 +29°C° 0 mm 1 mps 711 mmHg 46%
10:00 +31°C° 0 mm 1 mps 711 mmHg 41%
11:00 +34°C° 0 mm 2 mps 711 mmHg 36%
12:00 +35°C° 0 mm 2 mps 711 mmHg 31%
13:00 +35°C° 0 mm 3 mps 710 mmHg 32%
14:00 +35°C° 0 mm 4 mps 710 mmHg 34%
15:00 +35°C° 0 mm 5 mps 710 mmHg 35%
16:00 +33°C° 0.1 mm 5 mps 710 mmHg 42%
17:00 +30°C° 0.1 mm 5 mps 710 mmHg 50%
18:00 +27°C° 0.1 mm 4 mps 710 mmHg 57%
19:00 +26°C° 0.1 mm 3 mps 710 mmHg 62%
20:00 +25°C° 0.1 mm 2 mps 710 mmHg 66%
21:00 +24°C° 0.1 mm 1 mps 711 mmHg 70%
22:00 +24°C° 0.2 mm 1 mps 711 mmHg 72%
23:00 +23°C° 0.2 mm 1 mps 710 mmHg 74%

16 July, Thursday

Time Temperature Precipitation Wind Pressure Humidity
00:00 +23°C° 0.2 mm 1 mps 710 mmHg 75%
01:00 +23°C° 0 mm 1 mps 710 mmHg 76%
02:00 +23°C° 0 mm 1 mps 710 mmHg 76%
03:00 +23°C° 0 mm 1 mps 709 mmHg 76%
04:00 +23°C° 0 mm 1 mps 710 mmHg 75%
05:00 +23°C° 0 mm 1 mps 710 mmHg 74%
06:00 +23°C° 0 mm 2 mps 710 mmHg 72%
07:00 +25°C° 0 mm 2 mps 711 mmHg 65%
08:00 +27°C° 0 mm 2 mps 711 mmHg 57%
09:00 +29°C° 0 mm 2 mps 711 mmHg 50%
10:00 +30°C° 0 mm 2 mps 711 mmHg 45%
11:00 +33°C° 0 mm 3 mps 711 mmHg 41%
12:00 +34°C° 0 mm 4 mps 711 mmHg 37%
13:00 +34°C° 0 mm 4 mps 711 mmHg 38%
14:00 +34°C° 0 mm 5 mps 711 mmHg 40%
15:00 +33°C° 0 mm 5 mps 710 mmHg 41%
16:00 +32°C° 0 mm 5 mps 710 mmHg 46%
17:00 +29°C° 0 mm 4 mps 710 mmHg 50%
18:00 +27°C° 0 mm 4 mps 709 mmHg 54%
19:00 +26°C° 0.2 mm 3 mps 710 mmHg 61%
20:00 +24°C° 0.2 mm 3 mps 710 mmHg 67%
21:00 +23°C° 0.2 mm 2 mps 710 mmHg 73%
22:00 +21°C° 0.1 mm 2 mps 710 mmHg 76%
23:00 +21°C° 0.1 mm 2 mps 710 mmHg 80%

17 July, Friday

Time Temperature Precipitation Wind Pressure Humidity
00:00 +20°C° 0.1 mm 2 mps 709 mmHg 83%
01:00 +20°C° 0 mm 2 mps 709 mmHg 84%
02:00 +20°C° 0 mm 2 mps 709 mmHg 85%
03:00 +19°C° 0 mm 2 mps 709 mmHg 86%
04:00 +20°C° 0 mm 2 mps 709 mmHg 83%
05:00 +21°C° 0 mm 1 mps 709 mmHg 79%
06:00 +21°C° 0 mm 1 mps 710 mmHg 75%
07:00 +23°C° 0 mm 2 mps 710 mmHg 66%
08:00 +24°C° 0 mm 2 mps 710 mmHg 58%
09:00 +26°C° 0 mm 3 mps 710 mmHg 49%
10:00 +27°C° 0 mm 3 mps 711 mmHg 45%
11:00 +28°C° 0 mm 4 mps 711 mmHg 41%
12:00 +30°C° 0 mm 4 mps 711 mmHg 37%
13:00 +30°C° 0 mm 5 mps 710 mmHg 38%
14:00 +29°C° 0 mm 5 mps 710 mmHg 38%
15:00 +29°C° 0 mm 6 mps 710 mmHg 39%
16:00 +28°C° 0 mm 5 mps 709 mmHg 44%
17:00 +27°C° 0 mm 5 mps 709 mmHg 48%
18:00 +25°C° 0 mm 4 mps 709 mmHg 53%
19:00 +24°C° 0 mm 3 mps 709 mmHg 59%
20:00 +23°C° 0 mm 2 mps 710 mmHg 65%
21:00 +21°C° 0 mm 1 mps 710 mmHg 72%
22:00 +21°C° 0 mm 1 mps 710 mmHg 74%
23:00 +20°C° 0 mm 1 mps 709 mmHg 77%

18 July, Saturday

Time Temperature Precipitation Wind Pressure Humidity
00:00 +20°C° 0 mm 1 mps 709 mmHg 80%
01:00 +20°C° 0 mm 1 mps 709 mmHg 81%
02:00 +19°C° 0 mm 1 mps 709 mmHg 82%
03:00 +19°C° 0 mm 1 mps 709 mmHg 84%
04:00 +19°C° 0 mm 1 mps 709 mmHg 81%
05:00 +20°C° 0 mm 1 mps 709 mmHg 78%
06:00 +20°C° 0 mm 1 mps 709 mmHg 75%
07:00 +21°C° 0 mm 2 mps 710 mmHg 67%
08:00 +24°C° 0 mm 3 mps 710 mmHg 58%
09:00 +25°C° 0 mm 4 mps 711 mmHg 49%
10:00 +26°C° 0 mm 4 mps 711 mmHg 46%
11:00 +27°C° 0 mm 5 mps 711 mmHg 43%
12:00 +28°C° 0 mm 5 mps 710 mmHg 40%
13:00 +29°C° 0 mm 5 mps 710 mmHg 39%
14:00 +29°C° 0 mm 5 mps 710 mmHg 39%
15:00 +29°C° 0 mm 6 mps 710 mmHg 38%
16:00 +28°C° 0 mm 5 mps 710 mmHg 41%
17:00 +27°C° 0 mm 5 mps 710 mmHg 44%
18:00 +26°C° 0 mm 4 mps 710 mmHg 46%
19:00 +25°C° 0 mm 3 mps 710 mmHg 51%
20:00 +23°C° 0 mm 2 mps 710 mmHg 55%
21:00 +22°C° 0 mm 1 mps 710 mmHg 60%
22:00 +22°C° 0 mm 1 mps 710 mmHg 61%
23:00 +21°C° 0 mm 1 mps 710 mmHg 63%
Show more